STARLINK-2461 (48428 NORAD) Tracking and Keplerian Element Data

This shows tracking and keplerian element data for the satellite.

Feedback or suggestion? Click here.




ElementValue
Catalog48428
NameSTARLINK-2461
Epoch Orbit362
Epoch Day214.91667824
Epoch Year2021
RAAN167.3992
Inclination53.0535
Eccentricity0.0001658
Argument of Perigee79.7141
Mean Anonmoly86.493
Mean Motion15.06427005
Decay Rate-3.726E-05
L11 48428U 21040A 21214.91667824 -.00003726 00000-0 -23121-3 0 9998
L22 48428 53.0535 167.3992 0001658 79.7141 86.4930 15.06427005 3626

Live tracking and technical data element details for STARLINK-2461 (NORAD 48428). STARLINK-2461 can be tracked NOW for your location showing map with azimuth and elevation plus other details from your city location.

Track the satellite on the map from your city or location and see movement details for azimuth, elevation, latitude, longitude, range, height, and movement on the map or in text.







IsCatalogInMostPopularTable: catalog: 48428, numindb: 31
Update: records affected: 1



GetName: 48428 STARLINK-2461

Hit Count: updated at: Tue, 03 Aug 2021 21:29:29 GMT